PAA1305 LIMC-KPHL

Flight info

Callsign PAA1305
Flight time N/A
Altitude 34000
Route AOS6T AOSTA DCT ORSUD DCT MOLUS DCT UNKIR DCT DJL DCT BRY DCT CLM DCT KOPOR DCT VESAN DCT RATUK DCT SOVAT L613 SANDY DCT OKSAW DCT TEWXI DCT VATRY DCT DOGAL/M085F360 NATA ALLRY/N0487F380 N472A ALLEX/N0496F400 DCT ENE DCT CAM DCT ALB DCT DNY SPUDS7
Aircraft B742/H-SDFHIRWXY/L

Departure

Time 2026-05-01 09:01
Airport Milan Malpensa International Airport (LIMC)

Arrival

Time N/A
Airport Philadelphia International Airport (KPHL)
Time Latitude Longitude Altitude Speed Heading
2026-05-01 08:29 45.62724 8.71685 736 ft 0 kts 349°
2026-05-01 08:45 45.62720 8.71686 736 ft 2 kts 349°
2026-05-01 08:45 45.62705 8.71691 736 ft 2 kts 349°
2026-05-01 08:45 45.62690 8.71695 736 ft 2 kts 349°
2026-05-01 08:45 45.62676 8.71699 735 ft 2 kts 349°
2026-05-01 08:46 45.62660 8.71700 735 ft 2 kts 12°
2026-05-01 08:46 45.62647 8.71692 735 ft 2 kts 33°
2026-05-01 08:46 45.62635 8.71678 735 ft 2 kts 53°
2026-05-01 08:46 45.62628 8.71659 735 ft 2 kts 73°
2026-05-01 08:47 45.62625 8.71638 735 ft 2 kts 82°
2026-05-01 08:47 45.62624 8.71624 735 ft 0 kts 80°
2026-05-01 08:47 45.62623 8.71622 735 ft 0 kts 79°
2026-05-01 08:49 45.62624 8.71623 735 ft 0 kts 79°
2026-05-01 08:49 45.62626 8.71642 735 ft 4 kts 80°
2026-05-01 08:49 45.62631 8.71677 735 ft 3 kts 79°
2026-05-01 08:50 45.62638 8.71737 735 ft 9 kts 79°
2026-05-01 08:50 45.62655 8.71852 735 ft 14 kts 78°
2026-05-01 08:50 45.62675 8.71992 734 ft 13 kts 79°
2026-05-01 08:50 45.62673 8.72116 734 ft 12 kts 133°
2026-05-01 08:51 45.62589 8.72159 732 ft 14 kts 168°
2026-05-01 08:51 45.62486 8.72189 730 ft 16 kts 169°
2026-05-01 08:51 45.62371 8.72220 728 ft 17 kts 169°
2026-05-01 08:51 45.62242 8.72256 725 ft 19 kts 169°
2026-05-01 08:52 45.62102 8.72293 722 ft 21 kts 168°
2026-05-01 08:52 45.61949 8.72338 718 ft 23 kts 169°
2026-05-01 08:52 45.61780 8.72384 715 ft 25 kts 169°
2026-05-01 08:52 45.61601 8.72433 710 ft 26 kts 169°
2026-05-01 08:53 45.61417 8.72484 706 ft 26 kts 169°
2026-05-01 08:53 45.61239 8.72534 702 ft 25 kts 169°
2026-05-01 08:53 45.61112 8.72568 700 ft 12 kts 162°
2026-05-01 08:53 45.61094 8.72583 699 ft 0 kts 132°
2026-05-01 08:57 45.61093 8.72584 699 ft 0 kts 132°
2026-05-01 08:57 45.61080 8.72616 699 ft 6 kts 111°
2026-05-01 08:57 45.61083 8.72703 698 ft 9 kts 79°
2026-05-01 08:57 45.61099 8.72787 698 ft 7 kts 56°
2026-05-01 08:58 45.61135 8.72814 699 ft 4 kts
2026-05-01 08:58 45.61152 8.72811 699 ft 0 kts 348°
2026-05-01 08:59 45.61171 8.72805 699 ft 12 kts 348°
2026-05-01 08:59 45.61440 8.72731 704 ft 66 kts 349°
2026-05-01 09:00 45.62073 8.72557 719 ft 117 kts 349°
2026-05-01 09:00 45.63027 8.72293 739 ft 162 kts 349°
2026-05-01 09:00 45.64228 8.71949 911 ft 184 kts 351°
2026-05-01 09:00 45.65496 8.71573 1308 ft 189 kts 349°
2026-05-01 09:01 45.66710 8.70835 1721 ft 196 kts 324°
2026-05-01 09:01 45.67782 8.69610 2236 ft 198 kts 322°
2026-05-01 09:01 45.68842 8.68344 2692 ft 203 kts 322°
2026-05-01 09:01 45.69936 8.67039 2979 ft 208 kts 322°
2026-05-01 09:02 45.71055 8.65709 3234 ft 211 kts 322°
2026-05-01 09:02 45.72193 8.64363 3467 ft 215 kts 321°
2026-05-01 09:02 45.73092 8.62664 3694 ft 218 kts 284°
2026-05-01 09:02 45.73066 8.60526 3924 ft 220 kts 246°
2026-05-01 09:03 45.72224 8.58719 4165 ft 223 kts 230°
2026-05-01 09:03 45.71172 8.57032 4398 ft 230 kts 228°
2026-05-01 09:03 45.70081 8.55327 4625 ft 237 kts 228°
2026-05-01 09:03 45.68937 8.53546 4856 ft 248 kts 228°
2026-05-01 09:04 45.67750 8.51699 5095 ft 259 kts 228°
2026-05-01 09:04 45.66497 8.49750 5309 ft 271 kts 228°
2026-05-01 09:04 45.65219 8.47765 5749 ft 273 kts 228°
2026-05-01 09:04 45.63943 8.45782 6236 ft 274 kts 229°
2026-05-01 09:05 45.62984 8.43441 6598 ft 277 kts 257°
2026-05-01 09:05 45.62857 8.40703 7057 ft 277 kts 272°
2026-05-01 09:05 45.62784 8.37970 7518 ft 279 kts 267°
2026-05-01 09:05 45.62660 8.35206 7974 ft 281 kts 266°
2026-05-01 09:06 45.62321 8.32524 8361 ft 284 kts 247°
2026-05-01 09:06 45.61443 8.30068 8794 ft 285 kts 239°
2026-05-01 09:06 45.60394 8.27676 9217 ft 288 kts 237°
2026-05-01 09:06 45.59257 8.25318 9637 ft 290 kts 234°
2026-05-01 09:07 45.58041 8.22978 10056 ft 292 kts 233°
2026-05-01 09:07 45.56788 8.20690 10439 ft 296 kts 232°
2026-05-01 09:07 45.55478 8.18428 10818 ft 299 kts 231°
2026-05-01 09:07 45.54112 8.16128 11189 ft 302 kts 230°
2026-05-01 09:08 45.52750 8.13869 11550 ft 305 kts 230°
2026-05-01 09:08 45.51348 8.11568 11911 ft 308 kts 230°
2026-05-01 09:08 45.49924 8.09268 12258 ft 311 kts 229°
2026-05-01 09:08 45.48492 8.06974 12598 ft 314 kts 229°
2026-05-01 09:09 45.47033 8.04637 12934 ft 317 kts 229°
2026-05-01 09:09 45.45559 8.02284 13281 ft 320 kts 229°
2026-05-01 09:09 45.44080 7.99924 13624 ft 322 kts 229°
2026-05-01 09:09 45.42568 7.97515 13962 ft 325 kts 229°
2026-05-01 09:10 45.41072 7.95134 14289 ft 327 kts 229°
2026-05-01 09:10 45.39545 7.92706 14632 ft 329 kts 229°
2026-05-01 09:10 45.38012 7.90271 14973 ft 331 kts 229°
2026-05-01 09:10 45.36486 7.87850 15301 ft 333 kts 229°
2026-05-01 09:11 45.34916 7.85363 15632 ft 335 kts 229°
2026-05-01 09:11 45.33372 7.82918 15950 ft 337 kts 229°
2026-05-01 09:11 45.31827 7.80400 16244 ft 339 kts 235°
2026-05-01 09:11 45.30718 7.77466 16505 ft 339 kts 254°
2026-05-01 09:12 45.30279 7.74211 16792 ft 337 kts 272°
2026-05-01 09:12 45.30596 7.70954 17005 ft 333 kts 295°
2026-05-01 09:12 45.31682 7.68083 17272 ft 328 kts 310°
2026-05-01 09:12 45.33067 7.65508 17574 ft 329 kts 313°
2026-05-01 09:13 45.34514 7.62971 17793 ft 333 kts 313°
2026-05-01 09:13 45.35974 7.60436 18007 ft 337 kts 314°
2026-05-01 09:13 45.37617 7.58065 18227 ft 337 kts 322°
2026-05-01 09:13 45.39447 7.55957 18444 ft 336 kts 333°
2026-05-01 09:14 45.41522 7.54509 18663 ft 337 kts 340°
2026-05-01 09:14 45.43697 7.53187 18874 ft 341 kts 342°
2026-05-01 09:14 45.45935 7.51929 19118 ft 346 kts 342°
2026-05-01 09:14 45.48163 7.50665 19382 ft 351 kts 342°
2026-05-01 09:15 45.50475 7.49384 19662 ft 357 kts 343°
2026-05-01 09:15 45.52830 7.48120 19904 ft 362 kts 343°
2026-05-01 09:15 45.55210 7.46867 20141 ft 368 kts 343°
2026-05-01 09:15 45.57618 7.45609 20372 ft 374 kts 343°
2026-05-01 09:16 45.60084 7.44319 20608 ft 380 kts 343°
2026-05-01 09:16 45.62592 7.43006 20861 ft 387 kts 343°
2026-05-01 09:16 45.65155 7.41661 21109 ft 393 kts 343°
2026-05-01 09:17 45.70346 7.38934 21580 ft 405 kts 343°
2026-05-01 09:17 45.73021 7.37526 21792 ft 412 kts 343°
2026-05-01 09:17 45.78484 7.34615 22301 ft 425 kts 339°
2026-05-01 09:18 45.81044 7.32674 22560 ft 433 kts 331°
2026-05-01 09:18 45.86089 7.27743 23064 ft 446 kts 327°
2026-05-01 09:19 45.91180 7.22489 23522 ft 455 kts 327°
2026-05-01 09:19 45.93771 7.19825 23819 ft 456 kts 327°
2026-05-01 09:19 45.96352 7.17179 24079 ft 458 kts 327°
2026-05-01 09:20 46.01554 7.11828 24567 ft 462 kts 327°
2026-05-01 09:20 46.06803 7.06420 25146 ft 467 kts 326°
2026-05-01 09:21 46.12095 7.00958 25732 ft 471 kts 326°
2026-05-01 09:21 46.14678 6.98288 26090 ft 470 kts 326°
2026-05-01 09:21 46.19821 6.92961 26759 ft 471 kts 326°
2026-05-01 09:22 46.25252 6.87324 27339 ft 474 kts 326°
2026-05-01 09:22 46.30595 6.81767 27881 ft 478 kts 326°
2026-05-01 09:23 46.33317 6.78932 28139 ft 480 kts 326°
2026-05-01 09:23 46.38705 6.73308 28621 ft 483 kts 326°
2026-05-01 09:24 46.43952 6.67124 29043 ft 490 kts 313°
2026-05-01 09:24 46.46027 6.63211 29265 ft 493 kts 306°
2026-05-01 09:24 46.49559 6.54688 29731 ft 497 kts 301°
2026-05-01 09:25 46.52920 6.45905 30197 ft 500 kts 301°
2026-05-01 09:25 46.56321 6.37100 30654 ft 502 kts 301°
2026-05-01 09:26 46.58023 6.32727 30873 ft 504 kts 300°
2026-05-01 09:26 46.61247 6.24460 31380 ft 503 kts 300°
2026-05-01 09:26 46.63088 6.19737 31708 ft 501 kts 300°
2026-05-01 09:27 46.66524 6.10898 32267 ft 500 kts 300°
2026-05-01 09:27 46.68221 6.06522 32553 ft 499 kts 300°
2026-05-01 09:27 46.69923 6.02127 32841 ft 499 kts 300°
2026-05-01 09:28 46.71621 5.97732 33122 ft 498 kts 300°
2026-05-01 09:28 46.73305 5.93368 33393 ft 497 kts 300°
2026-05-01 09:28 46.75002 5.88962 33665 ft 496 kts 300°
2026-05-01 09:28 46.76674 5.84615 33927 ft 495 kts 300°
2026-05-01 09:29 46.80021 5.75898 34326 ft 494 kts 301°
2026-05-01 09:29 46.81980 5.71715 34442 ft 494 kts 310°
2026-05-01 09:30 46.86702 5.64530 34618 ft 496 kts 317°
2026-05-01 09:30 46.94333 5.54232 34428 ft 495 kts 317°
2026-05-01 09:31 46.96825 5.50839 34321 ft 493 kts 317°
2026-05-01 09:31 46.99327 5.47405 34241 ft 491 kts 317°
2026-05-01 09:32 47.06765 5.37109 34229 ft 495 kts 317°
2026-05-01 09:32 47.14109 5.26886 34251 ft 498 kts 316°
2026-05-01 09:33 47.19014 5.20036 34257 ft 496 kts 316°
2026-05-01 09:34 47.26421 5.09655 34268 ft 497 kts 316°
2026-05-01 09:34 47.33688 4.98654 34276 ft 499 kts 313°
2026-05-01 09:35 47.40832 4.87550 34286 ft 499 kts 314°
2026-05-01 09:36 47.45598 4.80157 34288 ft 500 kts 314°
2026-05-01 09:36 47.50383 4.72723 34288 ft 500 kts 314°
2026-05-01 09:37 47.55187 4.65240 34286 ft 501 kts 314°
2026-05-01 09:37 47.62365 4.54018 34280 ft 503 kts 314°
2026-05-01 09:38 47.69584 4.42683 34270 ft 505 kts 313°
2026-05-01 09:39 47.76717 4.31434 34255 ft 507 kts 313°
2026-05-01 09:39 47.81438 4.23963 34252 ft 508 kts 313°
2026-05-01 09:40 47.88684 4.12455 34252 ft 509 kts 313°
2026-05-01 09:41 47.93504 4.04771 34251 ft 509 kts 313°
2026-05-01 09:41 48.00721 3.93225 34251 ft 509 kts 313°
2026-05-01 09:42 48.05573 3.85433 34253 ft 509 kts 313°
2026-05-01 09:43 48.15086 3.70089 34252 ft 509 kts 313°
2026-05-01 09:43 48.19802 3.62451 34252 ft 509 kts 313°
2026-05-01 09:44 48.26994 3.50757 34252 ft 510 kts 313°
2026-05-01 09:45 48.31770 3.42963 34251 ft 510 kts 313°
2026-05-01 09:45 48.38969 3.31331 34237 ft 510 kts 318°
2026-05-01 09:46 48.44738 3.25651 34240 ft 511 kts 334°
2026-05-01 09:46 48.51247 3.21320 34238 ft 512 kts 338°
2026-05-01 09:47 48.57830 3.17244 34237 ft 511 kts 338°
2026-05-01 09:47 48.64370 3.13109 34238 ft 511 kts 338°
2026-05-01 09:48 48.70885 3.08915 34238 ft 512 kts 338°
2026-05-01 09:48 48.77436 3.04669 34236 ft 511 kts 338°
2026-05-01 09:49 48.83923 3.00420 34232 ft 511 kts 335°
2026-05-01 09:49 48.90197 2.95326 34231 ft 512 kts 330°
2026-05-01 09:50 48.96370 2.89814 34230 ft 512 kts 330°
2026-05-01 09:50 49.02487 2.84366 34230 ft 511 kts 330°
2026-05-01 09:51 49.08627 2.78943 34230 ft 511 kts 330°
2026-05-01 09:51 49.14545 2.73721 34229 ft 511 kts 330°
2026-05-01 09:52 49.20691 2.68284 34228 ft 511 kts 330°
2026-05-01 09:52 49.26847 2.62821 34228 ft 511 kts 330°
2026-05-01 09:53 49.32985 2.57358 34227 ft 511 kts 330°
2026-05-01 09:53 49.39148 2.51856 34227 ft 511 kts 330°
2026-05-01 09:54 49.45248 2.46394 34226 ft 511 kts 330°
2026-05-01 09:54 49.51450 2.41085 34226 ft 510 kts 337°
2026-05-01 09:55 49.58111 2.37484 34227 ft 510 kts 345°
2026-05-01 09:55 49.64898 2.34514 34226 ft 510 kts 345°
2026-05-01 09:56 49.71599 2.31555 34225 ft 510 kts 344°
2026-05-01 09:56 49.78344 2.28489 34226 ft 510 kts 343°
2026-05-01 09:57 49.85152 2.25354 34226 ft 510 kts 343°
2026-05-01 09:57 49.91948 2.22213 34226 ft 510 kts 343°
2026-05-01 09:58 49.98744 2.19064 34226 ft 510 kts 343°
2026-05-01 09:58 50.05530 2.15911 34226 ft 510 kts 343°
2026-05-01 09:59 50.12311 2.12752 34226 ft 510 kts 343°
2026-05-01 09:59 50.18946 2.09652 34227 ft 510 kts 343°
2026-05-01 10:00 50.25718 2.06478 34227 ft 510 kts 343°
2026-05-01 10:00 50.32531 2.03276 34227 ft 510 kts 343°
2026-05-01 10:01 50.38879 1.98506 34230 ft 509 kts 324°
2026-05-01 10:01 50.44396 1.91598 34229 ft 510 kts 318°
2026-05-01 10:02 50.49645 1.84262 34229 ft 507 kts 317°
2026-05-01 10:02 50.54903 1.76923 34230 ft 508 kts 317°
2026-05-01 10:03 50.60233 1.69555 34230 ft 510 kts 318°
2026-05-01 10:03 50.65510 1.62272 34229 ft 508 kts 318°
2026-05-01 10:04 50.70810 1.54963 34229 ft 508 kts 318°
2026-05-01 10:04 50.76133 1.47610 34228 ft 509 kts 318°
2026-05-01 10:05 50.81416 1.40262 34228 ft 509 kts 317°
2026-05-01 10:05 50.86726 1.32816 34228 ft 508 kts 317°
2026-05-01 10:06 50.91909 1.25520 34228 ft 508 kts 317°
2026-05-01 10:06 50.97172 1.18095 34228 ft 509 kts 316°
2026-05-01 10:07 51.02426 1.10664 34227 ft 509 kts 316°
2026-05-01 10:07 51.06857 1.02022 34228 ft 503 kts 296°
2026-05-01 10:08 51.10999 0.86822 34225 ft 500 kts 288°
2026-05-01 10:09 51.13382 0.76763 34225 ft 499 kts 288°
2026-05-01 10:09 51.15822 0.66592 34224 ft 500 kts 288°
2026-05-01 10:10 51.18331 0.56229 34222 ft 500 kts 288°
2026-05-01 10:10 51.22056 0.40812 34214 ft 500 kts 288°
2026-05-01 10:11 51.24535 0.30491 34208 ft 500 kts 287°
2026-05-01 10:11 51.26890 0.20636 34204 ft 499 kts 287°
2026-05-01 10:12 51.29348 0.10300 34201 ft 499 kts 287°
2026-05-01 10:13 51.33020 -0.05230 34196 ft 499 kts 287°
2026-05-01 10:13 51.35455 -0.15595 34170 ft 499 kts 288°
2026-05-01 10:14 51.39115 -0.31266 34187 ft 502 kts 288°
2026-05-01 10:14 51.41545 -0.41728 34194 ft 502 kts 288°
2026-05-01 10:15 51.43955 -0.52150 34187 ft 500 kts 288°
2026-05-01 10:15 51.46353 -0.62581 34180 ft 502 kts 288°
2026-05-01 10:16 51.48675 -0.72733 34173 ft 502 kts 287°
2026-05-01 10:17 51.52217 -0.88301 34169 ft 501 kts 287°
2026-05-01 10:17 51.55782 -1.04092 34164 ft 502 kts 287°
2026-05-01 10:18 51.59317 -1.19862 34156 ft 501 kts 287°
2026-05-01 10:19 51.61664 -1.30409 34151 ft 502 kts 287°
2026-05-01 10:19 51.63988 -1.40901 34148 ft 502 kts 287°
2026-05-01 10:20 51.67492 -1.56820 34149 ft 502 kts 287°
2026-05-01 10:20 51.69790 -1.67327 34148 ft 502 kts 286°
2026-05-01 10:21 51.74009 -1.82480 34149 ft 505 kts 294°
2026-05-01 10:22 51.78719 -1.97658 34153 ft 505 kts 294°
2026-05-01 10:23 51.82962 -2.13129 34151 ft 503 kts 288°
2026-05-01 10:23 51.86562 -2.29039 34147 ft 502 kts 287°
2026-05-01 10:24 51.91371 -2.50177 34145 ft 502 kts 288°
2026-05-01 10:25 51.96115 -2.71088 34149 ft 501 kts 287°
2026-05-01 10:26 51.98484 -2.81612 34152 ft 500 kts 287°
2026-05-01 10:27 52.03204 -3.02744 34152 ft 499 kts 287°
2026-05-01 10:28 52.06709 -3.18569 34161 ft 497 kts 287°
2026-05-01 10:28 52.10175 -3.34344 34160 ft 496 kts 287°
2026-05-01 10:29 52.13576 -3.49941 34163 ft 495 kts 288°
2026-05-01 10:30 52.18110 -3.70916 34164 ft 493 kts 287°
2026-05-01 10:31 52.22624 -3.92017 34167 ft 493 kts 287°
2026-05-01 10:32 52.25958 -4.07744 34167 ft 492 kts 287°
2026-05-01 10:33 52.30390 -4.28837 34169 ft 492 kts 287°
2026-05-01 10:34 52.33687 -4.44674 34171 ft 492 kts 287°
2026-05-01 10:34 52.35873 -4.55246 34171 ft 493 kts 287°
2026-05-01 10:35 52.39079 -4.70853 34170 ft 493 kts 286°
2026-05-01 10:35 52.41249 -4.81487 34168 ft 493 kts 286°
2026-05-01 10:36 52.44482 -4.97428 34164 ft 494 kts 286°
2026-05-01 10:37 52.46634 -5.08117 34163 ft 494 kts 285°
2026-05-01 10:37 52.49831 -5.24113 34157 ft 495 kts 285°
2026-05-01 10:38 52.51972 -5.34890 34151 ft 496 kts 285°
2026-05-01 10:38 52.54081 -5.45603 34149 ft 496 kts 284°
2026-05-01 10:39 52.56117 -5.56369 34148 ft 498 kts 287°
2026-05-01 10:39 52.58732 -5.66933 34147 ft 500 kts 290°
2026-05-01 10:40 52.61473 -5.77354 34146 ft 499 kts 289°
2026-05-01 10:40 52.63953 -5.87901 34145 ft 499 kts 287°
2026-05-01 10:41 52.66214 -5.98701 34144 ft 499 kts 285°
2026-05-01 10:42 52.69364 -6.14975 34134 ft 498 kts 284°
2026-05-01 10:42 52.71401 -6.25823 34128 ft 498 kts 284°
2026-05-01 10:43 52.73432 -6.36745 34124 ft 500 kts 283°
2026-05-01 10:43 52.75454 -6.47694 34123 ft 500 kts 283°
2026-05-01 10:44 52.77453 -6.58587 34120 ft 500 kts 283°
2026-05-01 10:44 52.79441 -6.69484 34119 ft 500 kts 282°
2026-05-01 10:45 52.81414 -6.80363 34117 ft 500 kts 282°
2026-05-01 10:45 52.83390 -6.91327 34116 ft 501 kts 282°
2026-05-01 10:46 52.85356 -7.02297 34116 ft 501 kts 282°
2026-05-01 10:46 52.87333 -7.13394 34115 ft 501 kts 282°
2026-05-01 10:47 52.89287 -7.24430 34114 ft 502 kts 282°
2026-05-01 10:47 52.91227 -7.35453 34115 ft 503 kts 282°
2026-05-01 10:48 52.93169 -7.46555 34119 ft 503 kts 282°
2026-05-01 10:48 52.95105 -7.57695 34121 ft 504 kts 282°
2026-05-01 10:49 52.97032 -7.68850 34117 ft 504 kts 281°
2026-05-01 10:49 52.98930 -7.79907 34112 ft 503 kts 281°
2026-05-01 10:50 53.00825 -7.91018 34109 ft 504 kts 281°
2026-05-01 10:50 53.02726 -8.02231 34105 ft 504 kts 281°
2026-05-01 10:51 53.04608 -8.13401 34101 ft 504 kts 281°
2026-05-01 10:51 53.06481 -8.24590 34100 ft 506 kts 281°
2026-05-01 10:52 53.08349 -8.35815 34097 ft 508 kts 281°
2026-05-01 10:52 53.10222 -8.47148 34091 ft 508 kts 280°
2026-05-01 10:53 53.12058 -8.58322 34090 ft 507 kts 280°
2026-05-01 10:53 53.13901 -8.69623 34090 ft 508 kts 279°
2026-05-01 10:54 53.15726 -8.80885 34088 ft 507 kts 279°
2026-05-01 10:54 53.17550 -8.92211 34086 ft 507 kts 279°
2026-05-01 10:55 53.19360 -9.03525 34086 ft 508 kts 279°
2026-05-01 10:55 53.21159 -9.14875 34085 ft 507 kts 279°
2026-05-01 10:56 53.22951 -9.26221 34083 ft 508 kts 279°
2026-05-01 10:56 53.24760 -9.37606 34082 ft 509 kts 279°
2026-05-01 10:57 53.26571 -9.49007 34081 ft 509 kts 279°
2026-05-01 10:57 53.28363 -9.60358 34080 ft 509 kts 279°
2026-05-01 10:58 53.30156 -9.71787 34079 ft 508 kts 278°
2026-05-01 10:58 53.31926 -9.83151 34078 ft 508 kts 278°
2026-05-01 10:59 53.33686 -9.94546 34077 ft 509 kts 278°
2026-05-01 10:59 53.35443 -10.05986 34076 ft 508 kts 278°
2026-05-01 11:00 53.37185 -10.17412 34076 ft 508 kts 278°
2026-05-01 11:00 53.38912 -10.28826 34068 ft 509 kts 278°
2026-05-01 11:01 53.40629 -10.40257 34065 ft 510 kts 278°
2026-05-01 11:01 53.42345 -10.51758 34072 ft 510 kts 278°
2026-05-01 11:02 53.44049 -10.63261 34073 ft 510 kts 278°
2026-05-01 11:02 53.45741 -10.74763 34071 ft 509 kts 277°
2026-05-01 11:03 53.47417 -10.86247 34071 ft 511 kts 277°
2026-05-01 11:03 53.49095 -10.97839 34069 ft 511 kts 277°
2026-05-01 11:04 53.50764 -11.09439 34069 ft 511 kts 277°
2026-05-01 11:04 53.52408 -11.20958 34069 ft 512 kts 277°
2026-05-01 11:05 53.54054 -11.32574 34069 ft 513 kts 277°
2026-05-01 11:05 53.55691 -11.44221 34071 ft 513 kts 277°
2026-05-01 11:06 53.57315 -11.55860 34071 ft 514 kts 277°
2026-05-01 11:06 53.58933 -11.67545 34072 ft 515 kts 277°
2026-05-01 11:07 53.61338 -11.85085 34073 ft 514 kts 277°
2026-05-01 11:07 53.62922 -11.96759 34074 ft 516 kts 277°
2026-05-01 11:08 53.64503 -12.08499 34068 ft 516 kts 277°
2026-05-01 11:09 53.66850 -12.26104 34064 ft 517 kts 277°
2026-05-01 11:09 53.68411 -12.37932 34069 ft 517 kts 277°
2026-05-01 11:10 53.70718 -12.55596 34063 ft 516 kts 277°
2026-05-01 11:10 53.72240 -12.67369 34059 ft 516 kts 276°
2026-05-01 11:11 53.73759 -12.79217 34054 ft 514 kts 276°
2026-05-01 11:11 53.75255 -12.90986 34052 ft 514 kts 277°
2026-05-01 11:12 53.76735 -13.02737 34050 ft 514 kts 277°
2026-05-01 11:12 53.78209 -13.14523 34049 ft 513 kts 277°
2026-05-01 11:13 53.79670 -13.26310 34051 ft 514 kts 277°
2026-05-01 11:13 53.81111 -13.38045 34051 ft 514 kts 278°
2026-05-01 11:14 53.82550 -13.49855 34054 ft 513 kts 278°
2026-05-01 11:14 53.83973 -13.61635 34056 ft 514 kts 278°
2026-05-01 11:15 53.85385 -13.73436 34060 ft 513 kts 278°
2026-05-01 11:15 53.86783 -13.85212 34063 ft 512 kts 278°
2026-05-01 11:16 53.88175 -13.97061 34066 ft 513 kts 278°
2026-05-01 11:16 53.89556 -14.08916 34326 ft 514 kts 278°
2026-05-01 11:17 53.90240 -14.14821 34576 ft 512 kts 278°
2026-05-01 11:17 53.90913 -14.20656 34764 ft 512 kts 278°
2026-05-01 11:17 53.91597 -14.26625 34947 ft 512 kts 278°
2026-05-01 11:17 53.92267 -14.32507 35139 ft 511 kts 278°
2026-05-01 11:18 53.92932 -14.38368 35327 ft 510 kts 278°
2026-05-01 11:18 53.93599 -14.44264 35507 ft 509 kts 278°
2026-05-01 11:18 53.94262 -14.50150 35684 ft 509 kts 278°
2026-05-01 11:18 53.94913 -14.55964 35855 ft 508 kts 279°
2026-05-01 11:19 53.95566 -14.61817 36004 ft 506 kts 279°
2026-05-01 11:19 53.96216 -14.67675 36057 ft 507 kts 278°
2026-05-01 11:19 53.97508 -14.79402 36075 ft 507 kts 278°
2026-05-01 11:20 53.98786 -14.91116 36069 ft 502 kts 279°
2026-05-01 11:20 53.99850 -15.02763 36066 ft 500 kts 273°
2026-05-01 11:21 54.00155 -15.14489 36087 ft 501 kts 270°
2026-05-01 11:21 54.00303 -15.26336 36098 ft 501 kts 271°
2026-05-01 11:22 54.00477 -15.38101 36077 ft 498 kts 271°
2026-05-01 11:22 54.00668 -15.49813 36065 ft 498 kts 271°
2026-05-01 11:23 54.00855 -15.61553 36066 ft 499 kts 272°
2026-05-01 11:23 54.01031 -15.73241 36066 ft 499 kts 271°
2026-05-01 11:24 54.01196 -15.84993 36066 ft 498 kts 271°
2026-05-01 11:25 54.01420 -16.02564 36066 ft 499 kts 272°
2026-05-01 11:25 54.01619 -16.20179 36068 ft 499 kts 272°
2026-05-01 11:26 54.01792 -16.37830 36071 ft 498 kts 272°
2026-05-01 11:27 54.01893 -16.49541 36071 ft 499 kts 272°
2026-05-01 11:27 54.01983 -16.61341 36075 ft 499 kts 272°
2026-05-01 11:28 54.02061 -16.73071 36077 ft 497 kts 271°
2026-05-01 11:28 54.02126 -16.84736 36080 ft 497 kts 271°
2026-05-01 11:29 54.02205 -17.02280 36079 ft 497 kts 272°
2026-05-01 11:30 54.02258 -17.19802 36078 ft 496 kts 272°
2026-05-01 11:30 54.02279 -17.31519 36074 ft 496 kts 272°
2026-05-01 11:31 54.02288 -17.43208 36073 ft 495 kts 272°
2026-05-01 11:31 54.02286 -17.54836 36068 ft 495 kts 273°
2026-05-01 11:32 54.02274 -17.66493 36068 ft 495 kts 272°
2026-05-01 11:32 54.02251 -17.78193 36064 ft 495 kts 272°
2026-05-01 11:33 54.02216 -17.89835 36063 ft 496 kts 272°
2026-05-01 11:33 54.02169 -18.01554 36061 ft 497 kts 273°
2026-05-01 11:34 54.02111 -18.13175 36061 ft 497 kts 273°
2026-05-01 11:34 54.02042 -18.24937 36061 ft 497 kts 273°
2026-05-01 11:35 54.01962 -18.36623 36061 ft 497 kts 273°
2026-05-01 11:35 54.01870 -18.48331 36067 ft 496 kts 273°
2026-05-01 11:36 54.01767 -18.59927 36067 ft 495 kts 273°
2026-05-01 11:36 54.01652 -18.71652 36072 ft 495 kts 272°
2026-05-01 11:37 54.01526 -18.83283 36072 ft 494 kts 272°
2026-05-01 11:37 54.01391 -18.94823 36075 ft 492 kts 272°
2026-05-01 11:38 54.01244 -19.06437 36075 ft 491 kts 272°
2026-05-01 11:38 54.01086 -19.17937 36074 ft 490 kts 272°
2026-05-01 11:39 54.00917 -19.29461 36073 ft 489 kts 272°
2026-05-01 11:39 54.00737 -19.40995 36070 ft 488 kts 273°
2026-05-01 11:40 54.00549 -19.52472 36069 ft 488 kts 273°
2026-05-01 11:40 54.00348 -19.63957 36065 ft 487 kts 273°
2026-05-01 11:41 54.00136 -19.75408 36064 ft 487 kts 272°
2026-05-01 11:41 53.99914 -19.86882 36060 ft 487 kts 272°
2026-05-01 11:42 53.99682 -19.98291 36059 ft 488 kts 272°
2026-05-01 11:42 53.99175 -20.09770 36056 ft 491 kts 269°
2026-05-01 11:43 53.98476 -20.21261 36055 ft 490 kts 269°
2026-05-01 11:43 53.97769 -20.32789 36054 ft 490 kts 269°
2026-05-01 11:44 53.96727 -20.49951 36055 ft 490 kts 269°
2026-05-01 11:44 53.96022 -20.61446 36056 ft 491 kts 269°
2026-05-01 11:45 53.95305 -20.72943 36058 ft 492 kts 268°
2026-05-01 11:45 53.94577 -20.84438 36060 ft 492 kts 268°
2026-05-01 11:46 53.93839 -20.95919 36060 ft 492 kts 268°
2026-05-01 11:46 53.93089 -21.07396 36061 ft 492 kts 268°
2026-05-01 11:47 53.92329 -21.18841 36061 ft 492 kts 268°
2026-05-01 11:47 53.91555 -21.30344 36056 ft 491 kts 268°
2026-05-01 11:48 53.90776 -21.41753 36050 ft 491 kts 268°
2026-05-01 11:48 53.89984 -21.53200 36049 ft 490 kts 268°
2026-05-01 11:49 53.89179 -21.64666 36048 ft 490 kts 268°
2026-05-01 11:49 53.88367 -21.76080 36047 ft 490 kts 267°
2026-05-01 11:50 53.87548 -21.87431 36045 ft 490 kts 267°
2026-05-01 11:50 53.86713 -21.98842 36044 ft 488 kts 267°
2026-05-01 11:51 53.85871 -22.10200 36043 ft 488 kts 267°
2026-05-01 11:51 53.85019 -22.21557 36043 ft 488 kts 267°
2026-05-01 11:52 53.84155 -22.32926 36043 ft 488 kts 267°
2026-05-01 11:52 53.83277 -22.44314 36043 ft 489 kts 267°
2026-05-01 11:53 53.82397 -22.55606 36045 ft 489 kts 267°
2026-05-01 11:53 53.81500 -22.66966 36045 ft 489 kts 266°
2026-05-01 11:54 53.80590 -22.78347 36046 ft 490 kts 266°
2026-05-01 11:54 53.79669 -22.89726 36045 ft 490 kts 266°
2026-05-01 11:55 53.78733 -23.01146 36044 ft 490 kts 266°
2026-05-01 11:55 53.77796 -23.12452 36044 ft 490 kts 266°
2026-05-01 11:56 53.76842 -23.23819 36044 ft 489 kts 266°
2026-05-01 11:56 53.75878 -23.35186 36044 ft 489 kts 266°
2026-05-01 11:57 53.74911 -23.46431 36043 ft 489 kts 266°
2026-05-01 11:57 53.73925 -23.57788 36043 ft 487 kts 266°
2026-05-01 11:58 53.72939 -23.69032 36042 ft 487 kts 265°
2026-05-01 11:59 53.71436 -23.85913 36045 ft 487 kts 265°
2026-05-01 11:59 53.70425 -23.97117 36045 ft 486 kts 265°
2026-05-01 12:00 53.68882 -24.13986 36048 ft 486 kts 265°
2026-05-01 12:01 53.67321 -24.30772 36076 ft 485 kts 265°
2026-05-01 12:01 53.66267 -24.41971 36086 ft 486 kts 265°
2026-05-01 12:02 53.65202 -24.53167 36087 ft 486 kts 265°
2026-05-01 12:02 53.64130 -24.64324 36088 ft 486 kts 265°
2026-05-01 12:03 53.63041 -24.75543 36088 ft 487 kts 264°
2026-05-01 12:03 53.61942 -24.86729 36089 ft 487 kts 264°
2026-05-01 12:04 53.60834 -24.97915 36089 ft 487 kts 264°
2026-05-01 12:04 53.59710 -25.09140 36090 ft 488 kts 264°
2026-05-01 12:05 53.58578 -25.20374 36090 ft 487 kts 264°
2026-05-01 12:05 53.56857 -25.37192 36090 ft 488 kts 264°
2026-05-01 12:06 53.55705 -25.48323 36090 ft 487 kts 264°
2026-05-01 12:06 53.54532 -25.59551 36090 ft 487 kts 264°
2026-05-01 12:07 53.53357 -25.70690 36090 ft 488 kts 263°
2026-05-01 12:07 53.52163 -25.81902 36090 ft 487 kts 263°
2026-05-01 12:08 53.50963 -25.93061 36094 ft 486 kts 263°
2026-05-01 12:08 53.49765 -26.04086 36100 ft 480 kts 263°
2026-05-01 12:09 53.48568 -26.15013 36104 ft 474 kts 263°
2026-05-01 12:09 53.47377 -26.25821 36105 ft 477 kts 263°
2026-05-01 12:10 53.45553 -26.42170 36098 ft 476 kts 263°
2026-05-01 12:11 53.43704 -26.58529 36100 ft 478 kts 263°
2026-05-01 12:11 53.42458 -26.69426 36100 ft 479 kts 263°
2026-05-01 12:12 53.41202 -26.80316 36100 ft 479 kts 263°
2026-05-01 12:12 53.39932 -26.91241 36100 ft 479 kts 263°
2026-05-01 12:13 53.38651 -27.02169 36100 ft 479 kts 263°
2026-05-01 12:13 53.37365 -27.13046 36101 ft 479 kts 263°
2026-05-01 12:14 53.36068 -27.23923 36101 ft 479 kts 263°
2026-05-01 12:14 53.34764 -27.34774 36103 ft 478 kts 263°
2026-05-01 12:15 53.33448 -27.45641 36105 ft 478 kts 263°
2026-05-01 12:15 53.32122 -27.56488 36105 ft 478 kts 263°
2026-05-01 12:16 53.30790 -27.67309 36105 ft 477 kts 262°
2026-05-01 12:16 53.29444 -27.78162 36105 ft 478 kts 262°
2026-05-01 12:17 53.28090 -27.88982 36104 ft 477 kts 262°
2026-05-01 12:17 53.26725 -27.99806 36104 ft 476 kts 262°
2026-05-01 12:18 53.25362 -28.10541 36105 ft 477 kts 262°
2026-05-01 12:18 53.23981 -28.21323 36105 ft 476 kts 262°
2026-05-01 12:19 53.22596 -28.32060 36105 ft 476 kts 262°
2026-05-01 12:19 53.21193 -28.42852 36104 ft 477 kts 262°
2026-05-01 12:20 53.19783 -28.53616 36104 ft 477 kts 262°
2026-05-01 12:20 53.18370 -28.64325 36104 ft 477 kts 262°
2026-05-01 12:21 53.16938 -28.75101 36104 ft 478 kts 262°
2026-05-01 12:21 53.15493 -28.85890 36104 ft 478 kts 262°
2026-05-01 12:22 53.14040 -28.96635 36104 ft 478 kts 262°
2026-05-01 12:22 53.12572 -29.07437 36104 ft 479 kts 262°
2026-05-01 12:23 53.11106 -29.18146 36103 ft 478 kts 262°
2026-05-01 12:23 53.09624 -29.28897 36103 ft 478 kts 261°
2026-05-01 12:24 53.08131 -29.39647 36103 ft 478 kts 261°
2026-05-01 12:24 53.06634 -29.50344 36103 ft 478 kts 261°
2026-05-01 12:25 53.04359 -29.66458 36104 ft 478 kts 261°
2026-05-01 12:26 53.02842 -29.77115 36104 ft 478 kts 261°
2026-05-01 12:26 53.00532 -29.93188 36104 ft 478 kts 261°
2026-05-01 12:27 52.98775 -30.09278 36104 ft 474 kts 268°
2026-05-01 12:28 52.97905 -30.25579 36101 ft 473 kts 269°
2026-05-01 12:29 52.96982 -30.41780 36100 ft 473 kts 268°
2026-05-01 12:29 52.96002 -30.57983 36102 ft 473 kts 268°
2026-05-01 12:30 52.94996 -30.74191 36099 ft 474 kts 267°
2026-05-01 12:31 52.94309 -30.85060 36098 ft 474 kts 267°
2026-05-01 12:31 52.93620 -30.95825 36098 ft 473 kts 267°
2026-05-01 12:32 52.92916 -31.06650 36098 ft 474 kts 267°
2026-05-01 12:32 52.91842 -31.22862 36098 ft 474 kts 267°
2026-05-01 12:33 52.91114 -31.33665 36101 ft 474 kts 267°
2026-05-01 12:33 52.90374 -31.44504 36123 ft 474 kts 267°
2026-05-01 12:34 52.89628 -31.55278 36147 ft 474 kts 267°
2026-05-01 12:34 52.88873 -31.66045 36153 ft 474 kts 266°
2026-05-01 12:35 52.88106 -31.76832 36152 ft 475 kts 266°
2026-05-01 12:35 52.87328 -31.87639 36151 ft 474 kts 266°
2026-05-01 12:36 52.86538 -31.98474 36151 ft 474 kts 266°
2026-05-01 12:36 52.85742 -32.09245 36151 ft 475 kts 266°
2026-05-01 12:37 52.84936 -32.20019 36150 ft 475 kts 266°
2026-05-01 12:37 52.84117 -32.30839 36153 ft 475 kts 265°
2026-05-01 12:38 52.83293 -32.41585 36159 ft 475 kts 265°
2026-05-01 12:38 52.82454 -32.52397 36161 ft 474 kts 265°
2026-05-01 12:39 52.81608 -32.63159 36161 ft 474 kts 265°
2026-05-01 12:39 52.80751 -32.73950 36161 ft 475 kts 265°
2026-05-01 12:40 52.79888 -32.84677 36161 ft 475 kts 264°
2026-05-01 12:40 52.79008 -32.95489 36161 ft 474 kts 264°
2026-05-01 12:41 52.78128 -33.06173 36162 ft 475 kts 264°
2026-05-01 12:41 52.77233 -33.16936 36162 ft 475 kts 264°
2026-05-01 12:42 52.76329 -33.27688 36163 ft 475 kts 264°
2026-05-01 12:42 52.75410 -33.38486 36163 ft 475 kts 264°
2026-05-01 12:43 52.74486 -33.49220 36164 ft 475 kts 264°
2026-05-01 12:43 52.73551 -33.59980 36164 ft 476 kts 264°
2026-05-01 12:44 52.72605 -33.70740 36165 ft 477 kts 263°
2026-05-01 12:45 52.70677 -33.92311 36166 ft 478 kts 263°
2026-05-01 12:45 52.69700 -34.03075 36167 ft 478 kts 263°
2026-05-01 12:46 52.68712 -34.13848 36166 ft 478 kts 263°
2026-05-01 12:46 52.67713 -34.24637 36166 ft 478 kts 263°
2026-05-01 12:47 52.66702 -34.35441 36168 ft 479 kts 262°
2026-05-01 12:47 52.65681 -34.46235 36170 ft 478 kts 262°
2026-05-01 12:48 52.64649 -34.57036 36170 ft 478 kts 262°
2026-05-01 12:48 52.63613 -34.67777 36170 ft 478 kts 262°
2026-05-01 12:49 52.62559 -34.78595 36171 ft 478 kts 261°
2026-05-01 12:49 52.61505 -34.89307 36171 ft 478 kts 261°
2026-05-01 12:50 52.60439 -35.00047 36172 ft 477 kts 261°
2026-05-01 12:50 52.59358 -35.10827 36172 ft 477 kts 261°
2026-05-01 12:51 52.58279 -35.21482 36173 ft 477 kts 261°
2026-05-01 12:52 52.56632 -35.37573 36174 ft 478 kts 261°
2026-05-01 12:52 52.54958 -35.53689 36174 ft 478 kts 261°
2026-05-01 12:53 52.53265 -35.69772 36187 ft 479 kts 260°
2026-05-01 12:54 52.52122 -35.80506 36208 ft 480 kts 260°
2026-05-01 12:54 52.50386 -35.96626 36222 ft 480 kts 260°
2026-05-01 12:55 52.48623 -36.12783 36223 ft 481 kts 260°
2026-05-01 12:56 52.47441 -36.23495 36224 ft 481 kts 259°
2026-05-01 12:56 52.46246 -36.34234 36221 ft 481 kts 259°
2026-05-01 12:57 52.45040 -36.44973 36222 ft 482 kts 259°
2026-05-01 12:57 52.43214 -36.61067 36224 ft 481 kts 259°
2026-05-01 12:58 52.41984 -36.71791 36226 ft 480 kts 258°
2026-05-01 12:59 52.40118 -36.87896 36227 ft 480 kts 258°
2026-05-01 12:59 52.38240 -37.03900 36228 ft 481 kts 258°
2026-05-01 13:00 52.36326 -37.20017 36229 ft 481 kts 258°
2026-05-01 13:01 52.34396 -37.36062 36231 ft 482 kts 258°
2026-05-01 13:02 52.32447 -37.52077 36237 ft 483 kts 258°
2026-05-01 13:07 52.17284 -38.70659 36211 ft 488 kts 255°
2026-05-01 13:08 52.15842 -38.81431 36213 ft 492 kts 255°
2026-05-01 13:08 52.14375 -38.92307 36244 ft 494 kts 255°
2026-05-01 13:09 52.12907 -39.03117 36245 ft 489 kts 255°
2026-05-01 13:09 52.11430 -39.13905 36241 ft 491 kts 255°
2026-05-01 13:10 52.09940 -39.24710 36240 ft 492 kts 255°
2026-05-01 13:10 52.08441 -39.35515 36243 ft 491 kts 255°
2026-05-01 13:11 52.06927 -39.46342 36249 ft 494 kts 255°
2026-05-01 13:11 52.05397 -39.57200 36251 ft 494 kts 255°
2026-05-01 13:12 52.03866 -39.67991 36252 ft 494 kts 254°
2026-05-01 13:12 52.02314 -39.78843 36252 ft 496 kts 253°
2026-05-01 13:13 52.00740 -39.89785 36253 ft 497 kts 253°
2026-05-01 13:13 51.99186 -40.00604 36252 ft 498 kts 256°
2026-05-01 13:14 51.98266 -40.11751 36255 ft 502 kts 262°
2026-05-01 13:14 51.97680 -40.23025 36256 ft 502 kts 263°
2026-05-01 13:15 51.97078 -40.34238 36257 ft 501 kts 262°
2026-05-01 13:15 51.96429 -40.45398 36257 ft 502 kts 262°
2026-05-01 13:16 51.95749 -40.56659 36258 ft 501 kts 262°
2026-05-01 13:16 51.95060 -40.67842 36258 ft 500 kts 261°
2026-05-01 13:17 51.93658 -40.90113 36276 ft 499 kts 261°
2026-05-01 13:18 51.92583 -41.06765 36263 ft 496 kts 261°
2026-05-01 13:18 51.91854 -41.17861 36260 ft 497 kts 261°
2026-05-01 13:19 51.91117 -41.28900 36264 ft 497 kts 261°
2026-05-01 13:20 51.89987 -41.45541 36266 ft 497 kts 261°
2026-05-01 13:20 51.89218 -41.56662 36268 ft 498 kts 261°
2026-05-01 13:21 51.88050 -41.73268 36267 ft 497 kts 261°
2026-05-01 13:21 51.87259 -41.84320 36268 ft 498 kts 260°
2026-05-01 13:22 51.86457 -41.95386 36267 ft 498 kts 260°
2026-05-01 13:22 51.85644 -42.06456 36266 ft 497 kts 260°
2026-05-01 13:23 51.84820 -42.17526 36266 ft 498 kts 260°
2026-05-01 13:23 51.83985 -42.28599 36266 ft 498 kts 260°
2026-05-01 13:24 51.83143 -42.39630 36265 ft 497 kts 260°
2026-05-01 13:25 51.81853 -42.56269 36266 ft 497 kts 261°
2026-05-01 13:25 51.80987 -42.67247 36266 ft 496 kts 259°
2026-05-01 13:26 51.80110 -42.78243 36267 ft 495 kts 260°
2026-05-01 13:26 51.79224 -42.89226 36267 ft 495 kts 260°
2026-05-01 13:27 51.78328 -43.00200 36268 ft 494 kts 260°
2026-05-01 13:27 51.76971 -43.16570 36269 ft 493 kts 259°
2026-05-01 13:28 51.75586 -43.32997 36270 ft 492 kts 259°
2026-05-01 13:29 51.73718 -43.54722 36272 ft 491 kts 259°
2026-05-01 13:31 51.70842 -43.87271 36274 ft 490 kts 258°
2026-05-01 13:32 51.68381 -44.14302 36276 ft 490 kts 258°
2026-05-01 13:33 51.65858 -44.41299 36278 ft 489 kts 258°
2026-05-01 13:34 51.63800 -44.62831 36280 ft 488 kts 258°
2026-05-01 13:35 51.62236 -44.78906 36281 ft 487 kts 258°
2026-05-01 13:36 51.60649 -44.94991 36282 ft 486 kts 258°
2026-05-01 13:36 51.59043 -45.11033 36283 ft 485 kts 258°
2026-05-01 13:37 51.57968 -45.21651 36283 ft 485 kts 258°
2026-05-01 13:37 51.56876 -45.32325 36284 ft 484 kts 258°
2026-05-01 13:38 51.55226 -45.48271 36282 ft 483 kts 259°
2026-05-01 13:39 51.54121 -45.58841 36280 ft 482 kts 259°
2026-05-01 13:39 51.53006 -45.69407 36285 ft 481 kts 258°
2026-05-01 13:40 51.51883 -45.79938 36295 ft 480 kts 258°
2026-05-01 13:40 51.50750 -45.90477 36300 ft 480 kts 258°
2026-05-01 13:41 51.49615 -46.00946 36300 ft 480 kts 258°
2026-05-01 13:41 51.48459 -46.11516 36301 ft 480 kts 258°
2026-05-01 13:42 51.47309 -46.21953 36301 ft 480 kts 258°
2026-05-01 13:42 51.46141 -46.32438 36300 ft 479 kts 258°
2026-05-01 13:43 51.44959 -46.42971 36300 ft 480 kts 258°
2026-05-01 13:43 51.43776 -46.53423 36301 ft 480 kts 258°
2026-05-01 13:44 51.42574 -46.63947 36301 ft 481 kts 258°
2026-05-01 13:44 51.41364 -46.74460 36301 ft 481 kts 257°
2026-05-01 13:45 51.40151 -46.84902 36301 ft 481 kts 257°
2026-05-01 13:45 51.38917 -46.95454 36300 ft 482 kts 257°
2026-05-01 13:46 51.37683 -47.05924 36300 ft 482 kts 257°
2026-05-01 13:46 51.36430 -47.16463 36300 ft 483 kts 257°
2026-05-01 13:47 51.35173 -47.26943 36300 ft 483 kts 257°
2026-05-01 13:47 51.33901 -47.37476 36300 ft 483 kts 257°
2026-05-01 13:48 51.32619 -47.47992 36300 ft 483 kts 257°
2026-05-01 13:48 51.31333 -47.58469 36300 ft 484 kts 257°
2026-05-01 13:49 51.30036 -47.68950 36301 ft 484 kts 257°
2026-05-01 13:49 51.28729 -47.79443 36301 ft 483 kts 257°
2026-05-01 13:50 51.27410 -47.89933 36302 ft 484 kts 257°
2026-05-01 13:50 51.26082 -48.00427 36303 ft 484 kts 257°
2026-05-01 13:51 51.24746 -48.10890 36303 ft 484 kts 257°
2026-05-01 13:51 51.23393 -48.21420 36301 ft 485 kts 257°
2026-05-01 13:52 51.22032 -48.31924 36303 ft 486 kts 257°
2026-05-01 13:52 51.20660 -48.42445 36307 ft 486 kts 257°
2026-05-01 13:53 51.19288 -48.52879 36308 ft 485 kts 257°
2026-05-01 13:53 51.17197 -48.68642 36308 ft 486 kts 256°
2026-05-01 13:54 51.15791 -48.79137 36307 ft 486 kts 256°
2026-05-01 13:54 51.14370 -48.89670 36307 ft 487 kts 256°
2026-05-01 13:55 51.12947 -49.00148 36307 ft 487 kts 256°
2026-05-01 13:55 51.11507 -49.10674 36309 ft 488 kts 256°
2026-05-01 13:56 51.10062 -49.21158 36310 ft 488 kts 256°
2026-05-01 13:56 51.08604 -49.31662 36310 ft 489 kts 256°
2026-05-01 13:57 51.07378 -49.40436 36310 ft 489 kts 256°
2026-05-01 13:57 51.05653 -49.52698 36310 ft 489 kts 256°
2026-05-01 13:58 51.04160 -49.63235 36311 ft 489 kts 256°
2026-05-01 13:58 51.02665 -49.73707 36311 ft 489 kts 256°
2026-05-01 13:59 51.01154 -49.84220 36312 ft 490 kts 256°
2026-05-01 13:59 50.99630 -49.94749 36312 ft 490 kts 256°
2026-05-01 14:00 50.97941 -50.05111 36313 ft 489 kts 250°
2026-05-01 14:00 50.95584 -50.15177 36313 ft 489 kts 247°
2026-05-01 14:01 50.93099 -50.25180 36312 ft 488 kts 247°
2026-05-01 14:01 50.90634 -50.35211 36313 ft 489 kts 248°
2026-05-01 14:02 50.88197 -50.45191 36314 ft 490 kts 248°
2026-05-01 14:02 50.85752 -50.55194 36314 ft 489 kts 248°
2026-05-01 14:03 50.83296 -50.65194 36314 ft 489 kts 247°
2026-05-01 14:03 50.80837 -50.75160 36314 ft 489 kts 247°
2026-05-01 14:04 50.78368 -50.85123 36314 ft 489 kts 247°
2026-05-01 14:04 50.76296 -50.93446 36315 ft 489 kts 247°
2026-05-01 14:05 50.73389 -51.05073 36314 ft 489 kts 247°
2026-05-01 14:05 50.70897 -51.14993 36315 ft 490 kts 247°
2026-05-01 14:06 50.68378 -51.24974 36315 ft 490 kts 248°
2026-05-01 14:06 50.65844 -51.34967 36634 ft 491 kts 248°
2026-05-01 14:07 50.64594 -51.39884 36931 ft 489 kts 248°
2026-05-01 14:07 50.63329 -51.44850 37163 ft 489 kts 248°
2026-05-01 14:07 50.62059 -51.49821 37352 ft 489 kts 248°
2026-05-01 14:08 50.59525 -51.59709 37743 ft 490 kts 248°
2026-05-01 14:08 50.58260 -51.64628 37943 ft 490 kts 248°
2026-05-01 14:08 50.56981 -51.69592 38141 ft 489 kts 247°
2026-05-01 14:08 50.55701 -51.74548 38282 ft 489 kts 247°
2026-05-01 14:09 50.54417 -51.79508 38324 ft 491 kts 247°
2026-05-01 14:09 50.51856 -51.89370 38334 ft 490 kts 247°
2026-05-01 14:10 50.49305 -51.99155 38327 ft 485 kts 247°
2026-05-01 14:10 50.46582 -52.08867 38313 ft 487 kts 244°
2026-05-01 14:11 50.43663 -52.18462 38314 ft 489 kts 244°
2026-05-01 14:11 50.39302 -52.32728 38315 ft 486 kts 244°
2026-05-01 14:12 50.36394 -52.42255 38314 ft 487 kts 244°
2026-05-01 14:12 50.33522 -52.51884 38314 ft 487 kts 246°
2026-05-01 14:13 50.31388 -52.59986 38315 ft 487 kts 247°
2026-05-01 14:13 50.28086 -52.71148 38316 ft 486 kts 242°
2026-05-01 14:14 50.25016 -52.80579 38317 ft 485 kts 242°
2026-05-01 14:14 50.21995 -52.89867 38319 ft 485 kts 242°
2026-05-01 14:15 50.18993 -52.99264 38320 ft 484 kts 243°
2026-05-01 14:15 50.16032 -53.08625 38320 ft 484 kts 243°
2026-05-01 14:16 50.13068 -53.18017 38319 ft 483 kts 243°
2026-05-01 14:16 50.10116 -53.27358 38319 ft 482 kts 243°
2026-05-01 14:17 50.07156 -53.36692 38318 ft 482 kts 243°
2026-05-01 14:17 50.04195 -53.45996 38318 ft 481 kts 243°
2026-05-01 14:18 50.01230 -53.55274 38317 ft 481 kts 243°
2026-05-01 14:18 49.98755 -53.62996 38318 ft 480 kts 243°
2026-05-01 14:19 49.95263 -53.73851 38315 ft 480 kts 242°
2026-05-01 14:19 49.92295 -53.83041 38316 ft 480 kts 242°
2026-05-01 14:20 49.87810 -53.96860 38323 ft 480 kts 242°
2026-05-01 14:21 49.84811 -54.06053 38325 ft 479 kts 242°
2026-05-01 14:21 49.81770 -54.15263 38324 ft 479 kts 242°
2026-05-01 14:22 49.77223 -54.28994 38322 ft 479 kts 242°
2026-05-01 14:22 49.74208 -54.38102 38321 ft 479 kts 242°
2026-05-01 14:23 49.71255 -54.47318 38320 ft 479 kts 244°
2026-05-01 14:23 49.68524 -54.56681 38319 ft 480 kts 247°
2026-05-01 14:24 49.66148 -54.66267 38316 ft 480 kts 248°
2026-05-01 14:24 49.63617 -54.75790 38307 ft 479 kts 243°
2026-05-01 14:25 49.60482 -54.84779 38301 ft 477 kts 237°
2026-05-01 14:25 49.56956 -54.93374 38301 ft 477 kts 237°
2026-05-01 14:26 49.52083 -55.06667 38302 ft 477 kts 240°
2026-05-01 14:27 49.48984 -55.15699 38299 ft 476 kts 241°
2026-05-01 14:27 49.45924 -55.24667 38297 ft 476 kts 241°
2026-05-01 14:28 49.41304 -55.38142 38297 ft 476 kts 241°
2026-05-01 14:28 49.38212 -55.47112 38296 ft 475 kts 241°
2026-05-01 14:29 49.35134 -55.56010 38294 ft 475 kts 241°
2026-05-01 14:30 49.28921 -55.73876 38292 ft 474 kts 240°
2026-05-01 14:31 49.24253 -55.87216 38280 ft 475 kts 240°
2026-05-01 14:31 49.21149 -55.96051 38272 ft 474 kts 240°
2026-05-01 14:32 49.18030 -56.04898 38266 ft 474 kts 240°
2026-05-01 14:32 49.14909 -56.13720 38263 ft 473 kts 240°
2026-05-01 14:33 49.11772 -56.22558 38260 ft 472 kts 240°
2026-05-01 14:33 49.08652 -56.31316 38255 ft 473 kts 240°
2026-05-01 14:34 49.05524 -56.40067 38248 ft 473 kts 240°
2026-05-01 14:34 49.02387 -56.48809 38260 ft 472 kts 240°
2026-05-01 14:35 48.99224 -56.57597 38259 ft 473 kts 240°
2026-05-01 14:35 48.96076 -56.66321 38260 ft 472 kts 239°
2026-05-01 14:36 48.92909 -56.75065 38259 ft 471 kts 239°
2026-05-01 14:36 48.89750 -56.83755 38259 ft 472 kts 239°
2026-05-01 14:37 48.86571 -56.92472 38257 ft 472 kts 239°
2026-05-01 14:37 48.83416 -57.01097 38251 ft 471 kts 239°
2026-05-01 14:38 48.80223 -57.09793 38239 ft 471 kts 239°
2026-05-01 14:38 48.77032 -57.18457 38230 ft 471 kts 239°
2026-05-01 14:39 48.73848 -57.27072 38207 ft 471 kts 239°
2026-05-01 14:39 48.70663 -57.35666 38222 ft 470 kts 239°
2026-05-01 14:40 48.67450 -57.44303 38229 ft 471 kts 239°
2026-05-01 14:40 48.64254 -57.52865 38231 ft 471 kts 239°
2026-05-01 14:41 48.61042 -57.61443 38233 ft 470 kts 239°
2026-05-01 14:41 48.57826 -57.70004 38234 ft 470 kts 239°
2026-05-01 14:42 48.54590 -57.78592 38233 ft 470 kts 239°
2026-05-01 14:42 48.51381 -57.87079 38229 ft 470 kts 239°
2026-05-01 14:43 48.48132 -57.95644 38226 ft 470 kts 239°
2026-05-01 14:43 48.44900 -58.04130 38223 ft 470 kts 239°
2026-05-01 14:44 48.41651 -58.12645 38224 ft 470 kts 239°
2026-05-01 14:44 48.36768 -58.25390 38224 ft 469 kts 239°
2026-05-01 14:45 48.31889 -58.38059 38223 ft 470 kts 239°
2026-05-01 14:46 48.28608 -58.46543 38218 ft 470 kts 239°
2026-05-01 14:46 48.23716 -58.59147 38213 ft 469 kts 239°
2026-05-01 14:47 48.20412 -58.67622 38215 ft 470 kts 238°
2026-05-01 14:48 48.15487 -58.80215 38214 ft 469 kts 238°
2026-05-01 14:48 48.10539 -58.92800 38207 ft 469 kts 238°
2026-05-01 14:49 48.03926 -59.09531 38195 ft 469 kts 238°
2026-05-01 14:50 47.97306 -59.26180 38176 ft 468 kts 238°
2026-05-01 14:51 47.92323 -59.38634 38175 ft 467 kts 238°
2026-05-01 14:52 47.87324 -59.51077 38189 ft 466 kts 238°
2026-05-01 14:53 47.82329 -59.63455 38187 ft 466 kts 238°
2026-05-01 14:53 47.79002 -59.71664 38184 ft 466 kts 237°
2026-05-01 14:54 47.75657 -59.79893 38179 ft 466 kts 237°
2026-05-01 14:54 47.72308 -59.88112 38175 ft 466 kts 237°
2026-05-01 14:55 47.68972 -59.96272 38172 ft 466 kts 237°
2026-05-01 14:55 47.65603 -60.04488 38168 ft 466 kts 237°
2026-05-01 14:56 47.62245 -60.12653 38162 ft 466 kts 237°
2026-05-01 14:56 47.58865 -60.20846 38130 ft 466 kts 237°
2026-05-01 14:57 47.55483 -60.29017 38090 ft 465 kts 237°
2026-05-01 14:57 47.50418 -60.41209 38074 ft 465 kts 237°
2026-05-01 14:58 47.47044 -60.49302 38070 ft 465 kts 237°
2026-05-01 14:58 47.43664 -60.57386 38066 ft 463 kts 237°
2026-05-01 14:59 47.40292 -60.65424 38062 ft 464 kts 237°
2026-05-01 14:59 47.36888 -60.73518 38058 ft 463 kts 237°
2026-05-01 15:00 47.31809 -60.85560 38055 ft 462 kts 237°
2026-05-01 15:01 47.28454 -60.93568 38055 ft 460 kts 237°
2026-05-01 15:01 47.25128 -61.01564 38058 ft 461 kts 237°
2026-05-01 15:02 47.21775 -61.09569 38062 ft 461 kts 237°
2026-05-01 15:02 47.18396 -61.17558 38061 ft 460 kts 237°
2026-05-01 15:03 47.15006 -61.25511 38059 ft 459 kts 237°
2026-05-01 15:03 47.11623 -61.33407 38052 ft 460 kts 237°
2026-05-01 15:04 47.08230 -61.41299 38042 ft 459 kts 237°
2026-05-01 15:04 47.04827 -61.49188 38029 ft 459 kts 237°
2026-05-01 15:05 47.01410 -61.57084 38016 ft 458 kts 237°
2026-05-01 15:05 46.98024 -61.64906 38011 ft 457 kts 237°
2026-05-01 15:06 46.94601 -61.72744 38011 ft 457 kts 236°
2026-05-01 15:06 46.91191 -61.80570 38011 ft 457 kts 236°
2026-05-01 15:07 46.87764 -61.88371 38010 ft 457 kts 236°
2026-05-01 15:07 46.84338 -61.96176 38003 ft 456 kts 236°
2026-05-01 15:08 46.80922 -62.03951 38006 ft 454 kts 236°
2026-05-01 15:08 46.77526 -62.11654 38012 ft 453 kts 235°
2026-05-01 15:09 46.74147 -62.19309 37991 ft 449 kts 235°
2026-05-01 15:09 46.70754 -62.26955 37976 ft 449 kts 234°
2026-05-01 15:10 46.67353 -62.34575 37964 ft 451 kts 235°
2026-05-01 15:10 46.62244 -62.46012 37958 ft 448 kts 235°
2026-05-01 15:11 46.57155 -62.57404 37942 ft 450 kts 234°
2026-05-01 15:12 46.53755 -62.64943 37933 ft 449 kts 234°
2026-05-01 15:12 46.48622 -62.76290 37920 ft 449 kts 234°
2026-05-01 15:14 46.40048 -62.95174 37899 ft 449 kts 234°
2026-05-01 15:14 46.34903 -63.06447 37891 ft 449 kts 234°
2026-05-01 15:15 46.28039 -63.21414 37883 ft 448 kts 233°
2026-05-01 15:16 46.21141 -63.36362 37880 ft 448 kts 233°
2026-05-01 15:18 46.12505 -63.54945 37868 ft 448 kts 233°
2026-05-01 15:19 46.05544 -63.69834 37857 ft 448 kts 232°
2026-05-01 15:19 46.00316 -63.80961 37838 ft 447 kts 232°
2026-05-01 15:20 45.95103 -63.92014 37833 ft 446 kts 232°
2026-05-01 15:21 45.91632 -63.99353 37828 ft 446 kts 232°
2026-05-01 15:21 45.88144 -64.06714 37824 ft 447 kts 232°
2026-05-01 15:22 45.82881 -64.17767 37816 ft 447 kts 232°
2026-05-01 15:22 45.79386 -64.25087 37813 ft 447 kts 232°
2026-05-01 15:23 45.75874 -64.32423 37811 ft 448 kts 232°
2026-05-01 15:23 45.72345 -64.39777 37808 ft 446 kts 232°
2026-05-01 15:24 45.68857 -64.47027 37807 ft 446 kts 232°
2026-05-01 15:24 45.65327 -64.54343 37806 ft 447 kts 232°
2026-05-01 15:25 45.61807 -64.61623 37805 ft 446 kts 232°
2026-05-01 15:25 45.58266 -64.68922 37805 ft 447 kts 231°
2026-05-01 15:26 45.54721 -64.76215 37802 ft 447 kts 231°
2026-05-01 15:26 45.51198 -64.83444 37797 ft 447 kts 231°
2026-05-01 15:27 45.47649 -64.90707 37794 ft 447 kts 231°
2026-05-01 15:28 45.42341 -65.01537 37793 ft 446 kts 231°
2026-05-01 15:28 45.38776 -65.08784 37791 ft 447 kts 231°
2026-05-01 15:29 45.33437 -65.19597 37785 ft 447 kts 231°
2026-05-01 15:30 45.26293 -65.33993 37783 ft 448 kts 231°
2026-05-01 15:31 45.15538 -65.55536 37787 ft 447 kts 230°
2026-05-01 15:32 45.08367 -65.69859 37781 ft 447 kts 230°
2026-05-01 15:34 44.97575 -65.91254 37781 ft 447 kts 230°